Location: Windsor
(43.2292°N, 89.3015°W)
Time: 20:57:43
(UTC+00:00)

DIWATA 2B (PO-101) - Pass Details

Date: 27 June 2022
Orbit: 583 x 599 km, 98.0° (Epoch: 11 August)

Event Time Altitude Azimuth Distance (km) Brightness Sun altitude
Exits shadow 07:32:19 29° 140° (SE) 1,116 ? -20.2°
Maximum altitude 07:34:18 57° 73° (ENE) 710 ? -20.0°
Drops below altitude 10° 07:38:26 10° 355° (N) 1,948 ? -19.7°
Sets 07:40:38 0° 352° (N) 2,856 ? -19.6°
